SCP
0 0 0 0 0 0 0 0 0 0 0 0 0 1 2 2 2 2 2 3 3 3 4 4 4 5 5 5 4 4 4 4 5 5 4 3 2 2 2 2 2 1 1 1
0 0 0 0 0 0 0 0 0 0 0 0 0 1 2 2 2 2 3 3 3 3 4 5 5 5 6 5 5 5 4 4 5 5 4 3 2 2 2 2 2 1 1 1
0 0 0 0 0 0 0 0 0 0 0 0 0 1 2 2 2 3 3 3 3 4 4 5 5 5 6 6 5 5 5 5 5 5 5 4 4 3 2 2 2 2 1 1
0 0 0 0 0 0 0 0 0 0 0 0 0 1 2 2 2 3 3 3 3 3 4 5 4 5 6 6 5 5 6 7 8 8 7 6 6 4 2 2 2 2 2 2
0 0 0 0 0 0 0 0 0 0 0 0 0 1 1 2 2 3 3 2 2 3 4 4 4 4 5 6 6 5 6 7 8 8 8 8 7 5 3 2 2 2 2 2
0 0 0 0 0 0 0 0 0 0 0 0 0 0 1 2 2 2 2 2 2 4 4 4 3 3 4 5 6 6 6 6 7 7 8 8 8 7 4 2 2 2 2 2
0 0 0 0 0 0 0 0 0 0 0 0 0 0 1 1 2 2 2 2 2 4 4 4 3 4 4 5 5 6 6 6 5 6 7 7 8 8 5 2 2 2 2 2
0 0 0 0 0 0 0 0 0 0 0 0 0 0 1 1 2 2 2 2 2 3 4 3 4 4 3 4 5 5 5 5 5 5 6 6 6 5 4 2 2 1 1 1
0 0 0 0 0 0 0 0 0 0 0 0 0 1 1 1 1 2 2 2 3 3 3 3 3 3 3 3 4 5 5 5 5 5 5 5 4 3 3 3 2 2 2 1
0 0 0 0 0 0 0 0 0 0 0 0 0 1 1 1 1 1 2 3 3 3 3 3 3 3 3 3 4 5 5 6 6 6 5 4 3 2 3 4 3 2 2 1
0 0 0 0 0 0 0 0 0 0 0 0 0 1 1 1 1 2 2 2 2 2 3 3 3 3 3 3 4 5 6 7 7 6 5 4 3 3 3 3 3 2 1 1
0 0 0 0 0 0 0 0 0 0 0 0 0 1 1 1 1 1 2 1 1 1 2 2 2 3 3 3 4 5 5 6 5 4 3 3 3 3 3 3 2 2 1 1
0 0 0 0 0 0 0 0 0 0 0 0 0 0 0 1 1 1 1 1 1 1 1 2 2 3 3 3 4 4 4 4 3 3 3 2 2 3 3 2 2 1 1 1
0 0 0 0 0 0 0 0 0 0 0 0 0 0 0 1 1 1 1 1 1 1 2 3 3 3 3 2 2 2 2 2 2 2 2 2 2 2 2 1 1 1 1 1
0 0 0 0 0 0 0 0 0 0 0 0 0 0 1 1 1 1 1 1 1 1 2 3 3 3 2 2 2 1 1 1 1 1 2 1 1 1 1 1 0 0 0 0
1 1 1 0 0 0 0 0 0 0 0 0 0 1 1 1 1 1 1 1 1 1 1 2 2 2 2 2 1 1 1 1 1 1 1 1 1 0 0 0 0 0 0 0
1 1 1 1 0 0 0 0 0 0 0 0 0 1 1 1 1 1 1 1 1 1 1 1 1 1 2 1 1 1 1 1 0 0 0 0 0 0 0 0 0 0 0 1
1 1 1 1 1 0 0 0 0 0 0 0 0 1 1 1 1 1 2 1 1 1 1 1 1 1 1 1 1 1 0 0 0 0 0 0 0 0 0 0 0 0 0 1
1 1 1 1 0 0 0 0 0 0 0 0 0 0 1 1 1 1 1 1 1 1 1 1 1 1 1 1 1 1 0 0 0 0 0 0 0 0 0 0 0 0 0 0
1 1 1 1 0 0 0 0 0 0 0 0 1 0 1 1 1 1 1 1 1 1 1 1 1 1 1 1 1 0 0 0 0 0 0 0 0 0 0 0 0 0 0 0
1 1 1 1 0 0 0 0 0 0 1 1 1 1 1 1 1 1 1 1 1 1 2 2 1 1 1 1 0 1 1 0 0 0 0 0 0 0 0 0 0 0 0 0
1 1 1 0 0 0 0 0 1 1 1 2 2 2 1 1 1 1 1 1 1 1 2 2 1 1 1 0 0 1 1 1 0 0 0 0 0 0 0 0 0 0 0 0
0 0 1 1 0 0 1 1 1 1 1 1 2 2 2 1 1 1 1 1 1 1 1 2 1 1 1 1 1 1 1 0 0 0 0 0 0 0 0 0 0 0 0 0
0 0 1 1 0 0 0 1 1 1 1 1 1 2 2 1 1 1 1 1 1 1 1 1 1 1 1 1 1 1 1 0 0 0 0 0 0 0 0 0 0 0 0 0
0 0 0 0 0 0 0 0 1 1 1 0 0 1 1 1 1 1 1 1 1 1 1 1 1 1 1 1 1 1 1 1 0 0 0 0 0 0 0 0 0 0 0 0
0 0 0 0 0 0 0 0 0 0 0 0 0 1 1 1 1 1 1 1 1 1 1 1 1 1 1 1 1 1 1 1 1 0 0 0 0 0 0 0 0 0 0 0
Wind_Speed
3 7 4 1 4 5 5 7 6 3 2 6 8 8 6 7 9 10 10 10 10 9 8 7 7 6 6 7 7 7 7 6 5 4 5 4 4 3 2 2 1 1 0 0
7 4 1 2 3 5 7 8 7 4 2 6 8 9 7 7 10 10 10 10 10 9 9 8 7 7 7 7 7 7 7 7 6 4 3 2 2 2 2 1 2 1 0 1
5 3 1 4 5 7 8 8 7 6 4 8 9 11 9 8 8 8 9 9 10 10 10 10 8 7 6 7 7 6 7 6 5 5 4 3 3 3 3 3 2 1 0 1
3 0 4 6 6 7 7 5 8 9 10 8 9 10 7 7 8 8 8 8 8 8 8 8 8 7 7 6 6 5 5 5 5 5 5 5 4 3 2 2 1 1 1 0
2 2 5 6 4 6 6 5 8 10 12 12 10 12 5 6 7 7 6 6 7 7 7 7 7 7 7 7 6 6 6 5 4 4 4 4 3 2 2 2 2 1 1 0
5 3 5 5 4 4 5 6 8 10 11 12 8 10 7 3 4 4 4 4 6 6 6 6 6 7 7 7 7 7 7 6 5 4 4 3 3 3 2 2 1 1 1 1
4 4 3 3 6 5 7 8 7 8 8 7 2 8 5 2 1 2 2 3 4 5 6 6 6 7 8 8 8 7 8 7 6 5 5 4 3 3 2 1 1 1 1 1
5 3 2 2 5 6 6 9 9 9 9 7 4 7 2 4 2 1 1 2 3 4 5 6 6 6 7 8 7 7 7 7 6 5 4 3 3 2 1 1 1 1 2 1
6 4 1 1 4 7 6 7 7 11 12 11 6 4 2 3 1 0 0 1 3 3 5 5 5 6 6 7 8 7 7 7 6 5 4 3 2 1 1 1 1 1 1 1
6 8 4 1 5 4 7 7 6 8 8 9 7 6 2 1 1 1 0 1 1 2 3 4 5 5 5 7 7 7 7 7 6 5 4 3 2 2 1 1 0 1 1 1
6 8 7 5 6 6 5 5 7 8 8 9 8 4 5 3 2 1 1 1 1 2 3 3 4 4 5 6 7 7 6 6 5 4 4 4 3 2 2 1 1 0 1 1
3 7 9 7 2 3 6 7 8 8 8 8 9 4 5 3 2 1 1 2 2 3 3 4 4 4 5 7 7 6 5 5 4 4 4 4 3 2 1 1 1 1 1 1
3 6 8 6 6 5 6 6 7 8 9 9 10 3 5 2 1 1 2 3 3 3 4 4 4 4 5 6 6 6 5 4 4 4 4 4 3 2 1 1 1 1 1 1
5 8 9 11 9 8 8 8 8 10 9 10 10 9 4 3 1 1 2 3 4 3 4 4 4 4 5 5 6 6 5 5 4 4 4 3 2 2 2 1 1 1 1 1
6 9 10 11 11 11 12 12 10 11 12 12 11 10 7 4 2 1 3 4 4 4 4 4 4 4 5 5 5 5 5 4 4 3 3 3 3 3 2 1 1 1 1 1
5 8 10 11 10 10 12 12 12 11 11 12 12 9 3 2 0 2 4 4 4 4 4 4 5 5 5 5 4 4 4 3 3 3 3 3 3 2 2 1 1 2 2 2
6 7 9 10 9 11 11 8 9 10 9 10 11 6 0 1 2 3 3 4 4 4 4 4 5 5 5 5 5 5 4 4 3 3 3 3 3 2 2 1 1 2 1 1
8 9 7 8 8 10 3 2 6 8 8 7 6 4 2 1 2 2 2 3 3 4 4 4 5 5 5 5 5 5 5 4 4 3 3 3 2 2 2 1 1 1 1 1
9 9 7 7 9 9 5 4 5 7 7 4 4 3 3 4 4 4 3 2 3 3 3 3 5 5 5 5 5 5 5 4 4 3 3 2 2 2 2 2 1 1 1 1
7 9 9 8 9 7 2 1 1 6 6 2 3 4 5 5 5 4 5 4 4 4 3 4 5 6 5 5 5 6 5 4 3 3 3 3 2 2 2 2 1 1 1 0
7 8 10 11 10 6 1 1 3 6 2 3 2 3 5 3 3 6 6 5 5 5 4 4 5 5 5 6 6 5 5 4 3 3 3 3 3 2 2 2 1 1 1 1
8 7 8 7 8 4 3 4 4 3 3 2 2 3 4 4 6 7 6 6 6 5 6 5 5 5 5 5 5 5 4 4 4 4 4 4 3 2 2 2 1 1 0 1
7 6 5 5 4 2 2 3 1 1 2 3 3 3 5 6 7 7 6 6 6 6 5 5 5 6 5 5 4 5 5 4 4 4 4 3 3 2 2 1 1 1 1 1
6 5 7 7 5 4 4 4 4 4 3 3 4 5 6 7 7 7 6 5 6 6 6 5 6 6 5 5 4 4 4 4 4 4 3 3 3 2 2 1 1 0 1 1
7 5 7 9 6 5 5 4 4 4 5 5 6 6 7 7 7 7 6 6 5 5 5 5 5 6 6 5 4 4 4 4 4 3 3 2 2 2 1 0 1 2 2 2
9 9 10 8 5 5 4 3 4 5 6 7 7 7 7 7 8 7 6 6 6 6 6 6 6 6 6 6 5 4 5 5 4 3 3 2 2 2 1 1 1 1 1 0
Wind_Direction
219 241 243 290 288 305 278 266 259 260 239 251 251 248 235 212 219 221 213 207 204 199 180 174 177 176 178 181 178 176 175 167 169 170 175 173 177 175 176 165 140 180 261 309
222 221 333 280 261 256 251 254 256 244 213 260 262 253 241 226 226 227 224 215 208 199 182 177 179 177 174 180 178 177 175 173 180 175 175 175 166 172 158 148 138 163 247 288
270 36 90 244 233 244 250 263 275 277 262 241 254 248 227 215 222 224 225 221 211 204 194 183 179 178 170 171 173 172 166 166 171 163 159 160 161 167 165 170 152 129 222 275
261 181 244 253 258 267 266 280 276 267 260 258 250 269 232 213 214 220 221 215 212 205 195 185 180 177 173 166 158 154 153 159 157 160 169 181 185 177 157 164 134 163 179 306
259 254 267 268 287 281 299 308 274 266 266 269 252 264 244 198 221 218 215 212 206 197 187 183 183 177 171 164 155 147 144 140 143 150 160 176 166 150 146 152 135 204 147 221
269 257 279 298 292 270 275 265 255 247 252 256 257 267 265 216 233 222 201 203 203 187 181 177 174 170 164 159 154 150 145 141 143 148 151 155 146 149 150 165 155 213 187 202
236 207 198 255 266 228 255 269 263 249 241 260 255 264 278 33 357 274 234 199 185 178 179 170 170 168 162 161 157 155 150 147 151 153 155 152 154 162 167 204 166 261 283 299
274 253 159 246 283 290 268 275 284 292 291 293 254 260 327 63 55 2 280 184 168 173 175 171 166 166 166 163 160 157 157 155 155 156 159 153 165 190 153 161 296 286 305 333
298 297 114 295 291 284 274 269 301 286 280 280 268 265 208 151 169 138 128 139 146 163 165 158 155 160 164 164 164 164 163 158 156 157 155 153 169 178 134 166 243 280 306 301
293 286 274 241 240 225 288 299 271 272 286 283 275 268 298 123 233 210 139 99 114 141 139 143 149 154 160 162 164 166 162 156 157 156 157 147 157 162 170 204 132 329 324 336
277 277 273 249 260 287 253 252 272 277 284 291 294 324 38 23 1 333 34 56 85 122 129 139 141 145 154 159 160 158 156 152 156 156 153 152 150 158 171 176 170 64 10 1
262 279 282 276 284 293 277 277 273 273 277 275 288 311 75 49 27 20 74 88 96 107 115 127 133 142 154 155 150 146 143 148 152 150 154 149 150 158 167 148 123 81 35 7
254 263 276 255 205 208 250 258 261 269 276 272 274 286 110 82 63 80 107 114 114 116 122 132 139 145 150 150 148 146 144 140 142 142 148 145 150 145 136 119 109 100 64 28
266 263 275 289 301 301 281 272 257 257 266 272 275 291 300 315 319 128 134 133 128 133 133 138 139 139 143 148 151 149 145 136 136 146 140 142 145 132 123 103 95 81 63 39
252 264 270 277 283 282 277 279 269 257 265 276 288 295 313 319 312 150 146 145 145 148 141 145 144 143 147 150 145 141 140 133 139 146 142 134 125 118 114 104 86 68 52 40
248 271 277 274 271 273 273 272 268 265 263 267 276 283 333 24 116 150 157 166 171 164 155 151 150 147 147 146 139 138 134 134 144 148 135 115 115 120 117 104 93 76 58 38
242 258 274 278 282 277 264 267 266 261 263 268 273 289 328 226 174 176 178 184 184 174 166 158 155 154 156 153 147 147 145 142 147 143 133 123 128 133 118 103 94 76 63 39
252 259 266 278 275 263 289 311 281 272 268 269 272 275 247 192 150 152 171 178 174 169 163 157 156 157 157 154 153 149 147 152 154 145 136 131 132 132 124 129 106 80 62 33
234 246 261 268 270 272 252 245 260 270 271 263 254 239 177 148 163 151 129 140 149 152 155 156 155 154 152 152 149 149 150 154 152 140 132 125 134 141 149 125 97 68 35 15
213 231 250 259 271 275 313 45 287 262 253 172 213 201 178 193 229 127 124 132 125 128 136 147 146 143 145 145 153 157 155 153 146 138 135 125 123 126 121 109 102 79 80 46
215 225 241 255 261 268 354 113 221 253 18 100 187 188 187 208 43 101 127 132 129 132 136 143 143 143 142 153 161 157 152 147 147 144 137 130 128 127 124 125 139 140 133 60
249 250 243 251 257 262 118 184 243 345 66 128 167 164 158 122 113 124 132 136 141 142 140 142 142 137 141 155 161 154 144 142 149 148 141 137 139 143 135 139 148 152 163 185
246 262 273 264 280 5 174 237 254 192 181 173 167 143 147 143 140 140 143 143 146 146 144 145 144 139 139 147 153 145 137 146 151 146 133 134 140 145 152 167 173 187 212 246
236 251 256 257 253 254 248 234 212 200 182 166 156 151 155 150 148 148 149 148 147 149 150 151 148 142 140 145 145 140 142 149 153 146 140 145 152 154 141 198 211 257 296 303
265 235 251 257 258 248 233 219 197 174 163 156 152 153 153 149 153 155 156 155 151 150 154 156 153 149 146 147 148 149 149 155 160 154 154 166 161 132 142 154 18 336 360 358
237 240 250 266 253 248 235 199 180 173 171 162 156 152 153 154 156 158 156 156 156 156 155 155 153 149 148 152 153 153 159 165 167 159 158 159 144 132 168 159 133 102 265 209